Lethbridge,

6:47 AM MDT on May 24, 2017 (GMT -0600)
Lethbridge

Weather History for CYQL - November, 2013

Change the Weather History Date:

Saturday, November 23, 2013

  Actual Average Record
Temperature  
Mean Temperature 24 °F -  
Max Temperature 45 °F 36 °F 60 °F (2005)
Min Temperature 3 °F 16 °F -27 °F (1996)
Degree Days  
Heating Degree Days 41    
Moisture  
Dew Point 19 °F    
Average Humidity 56    
Maximum Humidity 85    
Minimum Humidity 26    
Precipitation  
Precipitation 0.00 in - - ()
Sea Level Pressure  
Sea Level Pressure 30.30 in    
Wind  
Wind Speed 17 mph ()    
Max Wind Speed 41 mph    
Max Gust Speed 47 mph    
Visibility 11.6 miles    
Events      
Averages and records for this station are not official NWS values.
T = Trace of Precipitation, MM = Missing Value Source: Averaged Metar Reports

Daily Weather History Graph

Daily Weather History Graph

Search for Another Location

Airport or City:

Trip Planner

Search our weather history database for the weather conditions in past years. The results will help you decide how hot, cold, wet, or windy it might be!

Date:

Astronomy

Nov. 23, 2013 Rise Set
Actual Time 7:55 AM MST 4:39 PM MST
Civil Twilight 7:19 AM MST 5:15 PM MST
Nautical Twilight 6:39 AM MST 5:55 PM MST
Astronomical Twilight 6:01 AM MST 6:33 PM MST
Moon 10:24 PM MST (11/23) 12:03 PM MST (11/23)
Length of Visible Light 9h 56m
Length of Day
8h 43m
Waning Gibbous, 69% of the Moon is Illuminated
Nov 23
Waning Gibbous
Nov 25
Last Quarter
Dec 2
New
Dec 9
First Quarter
Dec 17
Full

Hourly Weather History & Observations

Time (MST) Temp. Windchill Dew Point Humidity Pressure Visibility Wind Dir Wind Speed Gust Speed Precip Events Conditions
12:00 AM 10.4 °F -5.4 °F 6.8 °F 85% 30.65 in 9.0 mi SW 13.8 mph - N/A   Clear
1:00 AM 17.6 °F 3.2 °F 10.4 °F 73% 30.59 in 9.0 mi SSW 15.0 mph - N/A   Clear
2:00 AM 19.4 °F 8.6 °F 12.2 °F 74% 30.57 in 9.0 mi SW 9.2 mph - N/A   Clear
3:00 AM 17.6 °F 5.0 °F 12.2 °F 79% 30.57 in 9.0 mi WSW 11.5 mph - N/A   Clear
4:00 AM 17.6 °F 4.3 °F 12.2 °F 79% 30.54 in 9.0 mi SW 12.7 mph 19.6 mph N/A   Clear
6:00 AM 23.0 °F 8.7 °F 14.0 °F 68% 30.51 in 15.0 mi SW 18.4 mph - N/A   Clear
7:00 AM 21.2 °F 6.8 °F 14.0 °F 74% 30.49 in 30.0 mi WSW 17.3 mph - N/A   Partly Cloudy
8:00 AM 24.8 °F 11.1 °F 15.8 °F 69% 30.46 in 40.0 mi WSW 18.4 mph - N/A   Mostly Cloudy
9:00 AM 28.4 °F 15.1 °F 17.6 °F 64% 30.43 in 40.0 mi WSW 20.7 mph - N/A   Mostly Cloudy
10:00 AM 32.0 °F 20.5 °F 19.4 °F 60% 30.41 in 40.0 mi SW 18.4 mph 24.2 mph N/A   Mostly Cloudy
11:00 AM 36 °F - 22 °F 44% 30.38 in 10 mi SW 20.7 mph - -  
11:00 AM 37.4 °F 26.9 °F 23.0 °F 56% 30.37 in 40.0 mi SW 20.7 mph - N/A   Mostly Cloudy
12:00 PM 41.0 °F 32.2 °F 24.8 °F 53% 30.32 in 40.0 mi WSW 18.4 mph - N/A   Mostly Cloudy
1:00 PM 42.8 °F 33.1 °F 24.8 °F 49% 30.27 in 40.0 mi WSW 25.3 mph 31.1 mph N/A   Mostly Cloudy
2:00 PM 44.6 °F 35.9 °F 26.6 °F 49% 30.23 in 40.0 mi WSW 23.0 mph - N/A   Mostly Cloudy
3:00 PM 42.8 °F 37.0 °F 26.6 °F 53% 30.20 in 40.0 mi SSW 10.4 mph - N/A   Mostly Cloudy
3:53 PM 44.6 °F 34.1 °F 21.2 °F 39% 30.17 in 40.0 mi West 34.5 mph 41.4 mph N/A   Mostly Cloudy
4:00 PM 44.6 °F 34.1 °F 23.0 °F 43% 30.16 in 40.0 mi West 34.5 mph 47.2 mph N/A   Mostly Cloudy
5:00 PM 40 °F - 24 °F 40% 30.12 in 10 mi WSW 24.2 mph - -  
5:00 PM 41.0 °F 31.1 °F 24.8 °F 53% 30.16 in 40.0 mi WSW 23.0 mph 32.2 mph N/A   Mostly Cloudy
6:00 PM 37.4 °F 28.5 °F 23.0 °F 56% 30.14 in 15.0 mi WSW 15.0 mph - N/A   Mostly Cloudy
7:00 PM 39.2 °F 28.3 °F 23.0 °F 52% 30.12 in 15.0 mi WSW 25.3 mph 31.1 mph N/A   Mostly Cloudy
8:00 PM 41.0 °F 31.4 °F 21.2 °F 45% 30.07 in 15.0 mi WSW 21.9 mph 33.4 mph N/A   Mostly Cloudy
9:00 PM 41.0 °F 30.5 °F 21.2 °F 45% 30.05 in 15.0 mi WSW 26.5 mph 33.4 mph N/A   Mostly Cloudy
10:00 PM 42.8 °F 31.8 °F 21.2 °F 42% 30.02 in 15.0 mi West 33.4 mph 39.1 mph N/A   Mostly Cloudy
11:00 PM 43 °F - 19 °F 26% 30.00 in 10 mi West 36.8 mph - -  
11:00 PM 42.8 °F 30.7 °F 19.4 °F 39% 30.00 in 9.0 mi West 41.4 mph 47.2 mph N/A   Clear